Location: Unspecified
(38.9820°N, 94.4650°W)
Time: 14:25:24
(UTC-05:00)

HST - Visible Passes

Search period start: 16 April 2014 00:00
Search period end: 26 April 2014 00:00
Orbit: 549 x 553 km, 28.5° (Epoch: 16 April)

Date Brightness Start Highest point End Pass type
(mag) Time Alt. Az. Time Alt. Az. Time Alt. Az.
16 Apr 3.0 20:26:33 10° S 20:27:22 11° SSE 20:28:10 10° SSE visible
16 Apr 3.4 22:05:12 10° SW 22:05:25 11° SW 22:05:25 11° SW visible
17 Apr 2.9 20:18:55 10° S 20:20:46 13° SSE 20:22:37 10° SE visible
17 Apr 3.0 21:58:33 10° SW 21:59:36 14° SSW 21:59:36 14° SSW visible
18 Apr 2.8 21:51:58 10° SW 21:53:41 17° SSW 21:53:41 17° SSW visible
19 Apr 2.6 21:45:27 10° SW 21:47:42 18° SSW 21:47:42 18° SSW visible
20 Apr 2.6 21:38:59 10° SW 21:41:39 18° S 21:41:39 18° S visible
21 Apr 2.7 21:32:35 10° SW 21:35:15 17° S 21:35:34 16° S visible
22 Apr 2.8 21:26:18 10° SW 21:28:39 15° SSW 21:29:28 14° S visible
23 Apr 3.0 21:20:11 10° SW 21:22:02 13° SSW 21:23:20 11° S visible
24 Apr 3.2 21:14:35 10° SSW 21:15:24 11° SSW 21:16:14 10° S visible
